UAL912 KSAV-KDEN

Flight info

Callsign UAL912
Flight time N/A
Altitude 34000
Route SMALZ WIGVO HANKO GAD SMITZ RZC/N0464F360 ICT KK51A OATHE CLASH5
Aircraft A320/M-SDE3FGHIRWY/LB1

Departure

Time 2026-04-18 22:29
Airport Savannah Hilton Head International Airport (KSAV)

Arrival

Time N/A
Airport Denver International Airport (KDEN)
Time Latitude Longitude Altitude Speed Heading
2026-04-18 22:01 32.13599 -81.20806 36 ft 0 kts 180°
2026-04-18 22:17 32.13604 -81.20806 35 ft 3 kts 180°
2026-04-18 22:18 32.13623 -81.20805 33 ft 3 kts 167°
2026-04-18 22:18 32.13640 -81.20812 32 ft 3 kts 160°
2026-04-18 22:18 32.13656 -81.20822 32 ft 3 kts 128°
2026-04-18 22:18 32.13664 -81.20840 33 ft 2 kts 92°
2026-04-18 22:19 32.13664 -81.20841 33 ft 0 kts 91°
2026-04-18 22:21 32.13664 -81.20840 33 ft 1 kts 91°
2026-04-18 22:22 32.13664 -81.20808 34 ft 7 kts 91°
2026-04-18 22:22 32.13661 -81.20724 34 ft 13 kts 92°
2026-04-18 22:22 32.13657 -81.20594 36 ft 18 kts 89°
2026-04-18 22:22 32.13665 -81.20433 41 ft 20 kts 86°
2026-04-18 22:23 32.13649 -81.20338 45 ft 9 kts 142°
2026-04-18 22:23 32.13635 -81.20335 47 ft 0 kts 174°
2026-04-18 22:23 32.13626 -81.20334 48 ft 3 kts 174°
2026-04-18 22:23 32.13588 -81.20318 49 ft 8 kts 146°
2026-04-18 22:24 32.13569 -81.20240 51 ft 12 kts 96°
2026-04-18 22:24 32.13567 -81.20122 53 ft 17 kts 89°
2026-04-18 22:24 32.13561 -81.19953 53 ft 24 kts 95°
2026-04-18 22:24 32.13511 -81.19813 50 ft 19 kts 172°
2026-04-18 22:25 32.13358 -81.19821 50 ft 25 kts 179°
2026-04-18 22:25 32.13169 -81.19815 48 ft 27 kts 178°
2026-04-18 22:25 32.13030 -81.19836 46 ft 17 kts 230°
2026-04-18 22:25 32.13022 -81.19998 44 ft 23 kts 274°
2026-04-18 22:26 32.13032 -81.20216 45 ft 30 kts 271°
2026-04-18 22:26 32.13036 -81.20491 43 ft 37 kts 271°
2026-04-18 22:26 32.13041 -81.20822 36 ft 44 kts 271°
2026-04-18 22:26 32.13041 -81.21202 29 ft 48 kts 271°
2026-04-18 22:27 32.13046 -81.21589 27 ft 48 kts 272°
2026-04-18 22:27 32.13035 -81.21842 26 ft 18 kts 228°
2026-04-18 22:27 32.12913 -81.21863 25 ft 19 kts 181°
2026-04-18 22:27 32.12873 -81.21827 27 ft 0 kts 91°
2026-04-18 22:28 32.12870 -81.21654 28 ft 55 kts 90°
2026-04-18 22:28 32.12868 -81.20941 36 ft 116 kts 90°
2026-04-18 22:28 32.12855 -81.19793 50 ft 162 kts 89°
2026-04-18 22:29 32.12855 -81.18441 509 ft 161 kts 93°
2026-04-18 22:29 32.12880 -81.17187 1138 ft 155 kts 92°
2026-04-18 22:29 32.12913 -81.15837 1383 ft 170 kts 94°
2026-04-18 22:29 32.12979 -81.14421 1805 ft 186 kts 74°
2026-04-18 22:30 32.13856 -81.13195 2021 ft 214 kts 26°
2026-04-18 22:30 32.15374 -81.12999 2353 ft 233 kts 341°
2026-04-18 22:30 32.16821 -81.13977 2657 ft 252 kts 316°
2026-04-18 22:30 32.18092 -81.15497 3177 ft 265 kts 309°
2026-04-18 22:31 32.19266 -81.17132 4018 ft 265 kts 308°
2026-04-18 22:31 32.20451 -81.18805 4865 ft 266 kts 309°
2026-04-18 22:31 32.21659 -81.20461 5651 ft 267 kts 310°
2026-04-18 22:31 32.22906 -81.22106 6415 ft 270 kts 311°
2026-04-18 22:32 32.24187 -81.23748 7128 ft 273 kts 311°
2026-04-18 22:32 32.25493 -81.25391 7875 ft 276 kts 312°
2026-04-18 22:32 32.26824 -81.27047 8589 ft 279 kts 313°
2026-04-18 22:32 32.28173 -81.28716 9309 ft 283 kts 313°
2026-04-18 22:33 32.29547 -81.30411 9853 ft 287 kts 314°
2026-04-18 22:33 32.30909 -81.32092 9962 ft 287 kts 313°
2026-04-18 22:33 32.32286 -81.33798 9997 ft 287 kts 313°
2026-04-18 22:33 32.33678 -81.35525 10001 ft 300 kts 313°
2026-04-18 22:34 32.35184 -81.37395 10011 ft 326 kts 313°
2026-04-18 22:34 32.36798 -81.39397 10127 ft 347 kts 313°
2026-04-18 22:34 32.38509 -81.41519 10237 ft 366 kts 313°
2026-04-18 22:34 32.40302 -81.43747 10474 ft 379 kts 313°
2026-04-18 22:35 32.42135 -81.46024 10964 ft 384 kts 313°
2026-04-18 22:35 32.43982 -81.48322 11513 ft 387 kts 313°
2026-04-18 22:35 32.45623 -81.50860 12061 ft 390 kts 301°
2026-04-18 22:35 32.46756 -81.53781 12615 ft 393 kts 288°
2026-04-18 22:36 32.47320 -81.56909 13164 ft 396 kts 276°
2026-04-18 22:36 32.47333 -81.60175 13717 ft 399 kts 269°
2026-04-18 22:36 32.47208 -81.63471 14216 ft 401 kts 269°
2026-04-18 22:36 32.47083 -81.66777 14722 ft 403 kts 269°
2026-04-18 22:37 32.46957 -81.70105 15233 ft 405 kts 269°
2026-04-18 22:37 32.46833 -81.73440 15724 ft 407 kts 269°
2026-04-18 22:37 32.46706 -81.76798 16197 ft 409 kts 268°
2026-04-18 22:37 32.46579 -81.80171 16674 ft 411 kts 269°
2026-04-18 22:38 32.46452 -81.83552 17129 ft 412 kts 268°
2026-04-18 22:38 32.46323 -81.86955 17594 ft 414 kts 268°
2026-04-18 22:38 32.46194 -81.90325 18032 ft 416 kts 268°
2026-04-18 22:38 32.46064 -81.93756 18454 ft 418 kts 269°
2026-04-18 22:39 32.45932 -81.97198 18831 ft 420 kts 269°
2026-04-18 22:39 32.45894 -82.00656 19208 ft 421 kts 274°
2026-04-18 22:39 32.46285 -82.04088 19573 ft 421 kts 283°